Truth Or Consequences, NM

10:05 PM MST on November 20, 2017 (GMT -0700)
Truth Or Consequences Municipal

Weather History for KTCS - February, 2014

Change the Weather History Date:

Tuesday, February 4, 2014

  Actual Average Record
Temperature  
Mean Temperature 41 °F -  
Max Temperature 52 °F 58 °F 70 °F (2015)
Min Temperature 30 °F 31 °F 1 °F (2011)
Degree Days  
Heating Degree Days 24    
Month to date heating degree days 84  
Since 1 July heating degree days 2158  
Moisture  
Dew Point 14 °F    
Average Humidity 35    
Maximum Humidity 53    
Minimum Humidity 16    
Precipitation  
Precipitation 0.00 in - 0.15 in (2002)
Month to date precipitation T  
Year to date precipitation T  
Sea Level Pressure  
Sea Level Pressure 29.84 in    
Wind  
Wind Speed 8 mph (WNW)    
Max Wind Speed 20 mph    
Max Gust Speed 24 mph    
Visibility 10 miles    
Events      
T = Trace of Precipitation, MM = Missing Value Source: NWS Daily Summary

Daily Weather History Graph

Daily Weather History Graph

Search for Another Location

Airport or City:

Trip Planner

Search our weather history database for the weather conditions in past years. The results will help you decide how hot, cold, wet, or windy it might be!

Date:

Astronomy

Feb. 04, 2014 Rise Set
Actual Time 7:02 AM MST 5:43 PM MST
Civil Twilight 6:36 AM MST 6:09 PM MST
Nautical Twilight 6:07 AM MST 6:39 PM MST
Astronomical Twilight 5:38 AM MST 7:08 PM MST
Moon 10:01 AM MST (2/4) 11:20 PM MST (2/4)
Length of Visible Light 11h 33m
Length of Day
10h 41m
Waxing Crescent, 29% of the Moon is Illuminated
Feb 4
Waxing Crescent
Feb 6
First Quarter
Feb 14
Full
Feb 22
Last Quarter
Mar 1
New

Hourly Weather History & Observations

Time (MST) Temp. Windchill Dew Point Humidity Pressure Visibility Wind Dir Wind Speed Gust Speed Precip Events Conditions
12:53 AM 39.0 °F 33.4 °F 19.9 °F 46% 29.69 in 10.0 mi WNW 8.1 mph - N/A   Partly Cloudy
1:53 AM 37.9 °F 35.5 °F 19.9 °F 48% 29.69 in 10.0 mi NNW 3.5 mph - N/A   Clear
2:53 AM 37.0 °F 29.8 °F 19.0 °F 48% 29.70 in 10.0 mi NW 10.4 mph - N/A   Clear
3:53 AM 36.0 °F 28.5 °F 17.1 °F 46% 29.73 in 10.0 mi NW 10.4 mph - N/A   Clear
4:53 AM 34.0 °F 27.2 °F 17.1 °F 50% 29.76 in 10.0 mi WNW 8.1 mph - N/A   Clear
5:53 AM 30.9 °F 26.2 °F 16.0 °F 54% 29.81 in 10.0 mi West 4.6 mph - N/A   Clear
6:53 AM 30.9 °F 23.5 °F 16.0 °F 54% 29.85 in 10.0 mi WNW 8.1 mph - N/A   Partly Cloudy
7:53 AM 34.0 °F 29.8 °F 17.1 °F 50% 29.87 in 10.0 mi WSW 4.6 mph - N/A   Clear
8:53 AM 39.0 °F 34.8 °F 17.1 °F 41% 29.87 in 10.0 mi West 5.8 mph - N/A   Clear
9:53 AM 41.0 °F 32.8 °F 15.1 °F 35% 29.88 in 10.0 mi West 16.1 mph - N/A   Scattered Clouds
10:53 AM 44.1 °F 38.6 °F 12.0 °F 27% 29.88 in 10.0 mi West 10.4 mph - N/A   Mostly Cloudy
11:53 AM 46.0 °F 41.4 °F 10.0 °F 23% 29.86 in 10.0 mi WNW 9.2 mph 21.9 mph N/A   Scattered Clouds
12:53 PM 48.9 °F - 8.1 °F 19% 29.81 in 10.0 mi West 10.4 mph 17.3 mph N/A   Mostly Cloudy
1:53 PM 51.1 °F - 6.1 °F 16% 29.78 in 10.0 mi WSW 13.8 mph 19.6 mph N/A   Clear
2:53 PM 51.1 °F - 8.1 °F 18% 29.78 in 10.0 mi West 11.5 mph - N/A   Clear
3:53 PM 51.1 °F - 8.1 °F 18% 29.79 in 10.0 mi Variable 5.8 mph - N/A   Clear
4:53 PM 50.0 °F - 10.0 °F 20% 29.82 in 10.0 mi WSW 13.8 mph - N/A   Clear
5:53 PM 46.9 °F - 10.9 °F 23% 29.87 in 10.0 mi WNW 10.4 mph - N/A   Clear
6:53 PM 43.0 °F 38.8 °F 12.0 °F 28% 29.92 in 10.0 mi WNW 6.9 mph - N/A   Clear
7:53 PM 42.1 °F 37.1 °F 12.9 °F 31% 29.94 in 10.0 mi NW 8.1 mph - N/A   Clear
8:53 PM 39.9 °F 32.9 °F 12.9 °F 33% 29.94 in 10.0 mi WNW 11.5 mph - N/A   Clear
9:53 PM 37.9 °F 34.4 °F 14.0 °F 38% 29.98 in 10.0 mi Variable 4.6 mph - N/A   Clear
10:53 PM 37.9 °F 35.5 °F 14.0 °F 38% 29.99 in 10.0 mi West 3.5 mph - N/A   Clear
11:53 PM 37.0 °F 34.5 °F 15.1 °F 41% 29.98 in 10.0 mi NW 3.5 mph - N/A   Clear